SB KEPS @ AMSAT $ORB08080.N 2Line Orbital Elements 08080.AMSAT
HR AMSAT ORBITAL ELEMENTS FOR AMATEUR SATELLITES IN NASA FORMAT FROM WA5QGD FORT WORTH,TX March 20, 2008 Send Subscribe/unsubscribe to KEPS at http://www.amsat.org/mailman/listinfo/keps BID: ORB08080.N
DECODE 2-LINE ELSETS WITH THE FOLLOWING KEY: 1 AAAAAU 00 0 0 BBBBB.BBBBBBBB .CCCCCCCC 00000-0 00000-0 0 DDDZ 2 AAAAA EEE.EEEE FFF.FFFF GGGGGGG HHH.HHHH III.IIII JJ.JJJJJJJJKKKKKZ KEY: A-CATALOGNUM B-EPOCHTIME C-DECAY D-ELSETNUM E-INCLINATION F-RAAN G-ECCENTRICITY H-ARGPERIGEE I-MNANOM J-MNMOTION K-ORBITNUM Z-CHECKSUM
TO ALL RADIO AMATEURS BT
AO-07 1 07530U 74089B 08080.70845864 -.00000027 00000-0 10000-3 0 1313 2 07530 101.4779 115.1342 0012125 075.8743 284.3671 12.53573557525891 AO-10 1 14129U 83058B 08079.40395969 -.00000355 00000-0 10000-3 0 04869 2 14129 025.9277 224.7537 6017441 108.1305 323.1729 02.05872595186254 UO-11 1 14781U 84021B 08080.73216019 .00000330 00000-0 51311-4 0 6236 2 14781 098.1647 113.4019 0009154 005.6187 354.5131 14.79627029290777 RS-15 1 23439U 94085A 08079.87854932 -.00000039 00000-0 10000-3 0 01277 2 23439 064.8158 279.4695 0149893 139.7459 221.4677 11.27551936544898 FO-29 1 24278U 96046B 08079.93592745 -.00000031 00000-0 23014-5 0 07466 2 24278 098.5851 007.9003 0351414 086.6082 277.5179 13.52936143572322 SO-33 1 25509U 98061B 08079.43981628 .00000049 00000-0 -28411-5 0 01571 2 25509 031.4322 103.8035 0355469 322.5074 035.1247 14.28201496490779 AO-40 1 26609U 00072B 08078.04377786 -.00000372 00000-0 10000-3 0 243 2 26609 007.4979 092.3688 7921243 062.3329 354.9881 01.25582347 33898 VO-52 1 28650U 05017B 08079.77749866 .00000254 00000-0 38911-4 0 08842 2 28650 097.7973 148.8122 0028306 073.6531 286.7763 14.81435650155361 PO-63 1 29712U 07001D 08080.73190811 .00000482 00000-0 70446-4 0 2852 2 29712 097.8845 140.5510 0013323 312.5367 047.4719 14.80062072 64382 AO-16 1 20439U 90005D 08079.55084780 .00000036 00000-0 28699-4 0 2779 2 20439 098.2230 064.2279 0011977 083.2143 277.0408 14.31787514948099 LO-19 1 20442U 90005G 08079.61304209 .00000001 00000-0 15380-4 0 02035 2 20442 098.1976 073.0828 0012913 082.7763 277.4885 14.32026315948257 AO-27 1 22825U 93061C 08079.66107259 -.00000032 00000-0 39893-5 0 09250 2 22825 098.3731 043.0851 0008528 159.3805 200.7706 14.29233104754981 IO-26 1 22826U 93061D 08079.87065180 .00000033 00000-0 29257-4 0 06282 2 22826 098.3666 044.2383 0009157 155.9921 204.1695 14.29481572755106 PO-28 1 22829U 93061G 08079.41120973 -.00000014 00000-0 10539-4 0 09014 2 22829 098.3542 044.9164 0010426 131.3469 228.8611 14.30183328755293 GO-32 1 25397U 98043D 08079.89077601 -.00000143 00000-0 -45078-4 0 05569 2 25397 098.3759 119.4200 0002007 122.1231 238.0129 14.23139322503516 MO-46 1 26548U 00057D 08079.49472117 .00000058 00000-0 25027-4 0 00529 2 26548 064.5575 047.8049 0019856 336.2161 023.8017 14.83237786404516 NO-44 1 26931U 01043C 08079.59138840 -.00000210 00000-0 -49835-4 0 08336 2 26931 067.0524 155.4666 0005311 274.5246 085.5245 14.29514192337606 SO-50 1 27607U 02058C 08079.69602459 .00000001 00000-0 22370-4 0 05571 2 27607 064.5608 325.4189 0082185 297.2926 061.9823 14.71336673281805 CO-55 1 27844U 03031E 08080.26772065 .00000066 00000-0 50855-4 0 2625 2 27844 098.7182 089.7611 0010395 017.6755 342.4810 14.20566756244816 CO-57 1 27848U 03031J 08080.60611212 .00000055 00000-0 45948-4 0 2156 2 27848 098.7192 089.2098 0010234 019.7877 340.3697 14.20378054244839 AO-51 1 28375U 04025K 08080.49268022 .00000012 00000-0 16271-4 0 574 2 28375 098.0811 110.0163 0085169 061.7450 299.2307 14.40600349195635 CO-56 1 28941U 06005C 08080.76520575 .00021670 25618-5 18014-3 0 9224 2 28941 098.1029 179.7506 0181499 001.7559 358.4318 15.52229305116306 CP4 1 31122U 07012F 08080.66300125 .00000549 00000-0 13192-3 0 2932 2 31122 098.0472 149.5098 0084868 243.4056 115.8407 14.55099640 49209 CP3 1 31128U 07012M 08079.88445982 -.00000048 00000-0 00000-0 0 02881 2 31128 098.0468 147.0659 0101802 250.6354 108.3827 14.51923906048978 LIBERT 1 31129U 07012N 08080.75989907 .00000336 00000-0 89029-4 0 8326 2 31129 098.0462 147.9353 0101366 247.9873 111.0523 14.52013326 49087 NOAA-10 1 16969U 86073A 08080.12859353 -.00000018 00000-0 10888-4 0 504 2 16969 098.7298 102.2475 0013238 081.5557 278.7119 14.27353551118736 NOAA-11 1 19531U 88089A 08080.34654619 -.00000054 00000-0 -52039-5 0 880 2 19531 098.7961 170.9163 0011017 325.0439 034.9995 14.14868325 5347 NOAA-12 1 21263U 91032A 08080.48295898 -.00000070 00000-0 -10617-4 0 5969 2 21263 098.7670 082.4441 0012996 027.4679 332.7200 14.25521468875755 MET-3/5 1 21655U 91056A 08079.92916425 .00000051 00000-0 10000-3 0 04087 2 21655 082.5597 167.4359 0012378 233.7852 126.2126 13.17014277797830 MET-2/21 1 22782U 93055A 08079.75633146 .00000027 00000-0 11248-4 0 00947 2 22782 082.5510 182.5090 0022770 177.0108 183.1195 13.83627134734764 OKEAN-4 1 23317U 94066A 08079.56453361 .00000050 00000-0 32311-5 0 05376 2 23317 082.5391 038.6855 0023903 064.2069 296.1605 14.82588007725001 NOAA-14 1 23455U 94089A 08080.51458474 .00000013 00000-0 30552-4 0 706 2 23455 098.9534 152.6847 0009804 041.4495 318.7418 14.13737465681828 SICH-1 1 23657U 95046A 08079.72830951 .00000262 00000-0 30224-4 0 03366 2 23657 082.5303 179.5030 0025454 056.4342 303.9315 14.81561107676978 NOAA-15 1 25338U 98030A 08080.51625959 .00000068 00000-0 47818-4 0 3955 2 25338 098.5524 074.6457 0009758 304.1077 055.9179 14.24691254512170 RESURS 1 25394U 98043A 08080.72560331 .00000004 00000-0 19786-4 0 8831 2 25394 098.4014 128.6724 0002352 087.2808 272.8640 14.24155324503857 FENGYUN1 1 25730U 99025A 08080.92175787 .00000482 00000-0 30896-3 0 3676 2 25730 098.7200 059.7061 0022499 060.6318 299.7096 14.07718790456543 OKEAN-0 1 25860U 99039A 08079.88794471 .00000053 00000-0 15371-4 0 3187 2 25860 097.7464 074.4071 0000935 106.7509 253.3799 14.73508617466240 NOAA-16 1 26536U 00055A 08080.51975558 .00000192 00000-0 12917-3 0 8571 2 26536 099.1511 067.7745 0011295 112.5463 247.6898 14.12473332386254 NOAA-17 1 27453U 02032A 08080.51703647 .00000086 00000-0 55857-4 0 8534 2 27453 098.5430 147.6813 0011659 012.2961 347.8506 14.23957906298182 NOAA-18 1 28654U 05018A 08080.49475621 -.00000204 00000-0 -88873-4 0 3601 2 28654 098.8599 022.5486 0013776 201.3510 158.7081 14.11144814145962 HUBBLE 1 20580U 90037B 08079.67564565 .00000396 00000-0 17827-4 0 967 2 20580 028.4678 187.0286 0003952 156.7919 203.2848 15.00351632781527 UARS 1 21701U 91063B 08079.79297454 .00003898 00000-0 64346-4 0 03260 2 21701 056.9740 191.2476 0086567 011.9503 348.3580 15.50919748908620 PO-34 1 25520U 98064B 08079.34059552 .00000544 00000-0 17003-4 0 9558 2 25520 028.4596 060.2752 0005172 026.1995 333.8861 15.17152709519509 ISS 1 25544U 98067A 08081.00262771 -.00046364 00000-0 -28591-3 0 1537 2 25544 051.6390 110.9868 0001297 299.9711 141.8022 15.76285268534613 OO-38 1 26063U 00004C 08079.88713160 -.00000041 00000-0 60911-5 0 1641 2 26063 100.2007 138.3411 0037282 101.1753 259.3618 14.35829707426754 UWE-1 1 28892U 05043C 08079.69257386 .00000128 00000-0 36626-4 0 00035 2 28892 098.1055 335.4260 0017216 332.7234 027.3054 14.59604691127548 CO-58 1 28895U 05043F 08079.66299332 .00000100 00000-0 30735-4 0 09755 2 28895 098.1089 335.7190 0017785 332.9440 027.0849 14.59646397127420 NCUBE2 1 28897U 05043H 08079.70646466 .00000156 00000-0 42234-4 0 05086 2 28897 098.1067 335.6976 0017400 334.3250 025.7080 14.59815400119716 FCAL 1 29667U 06055J 08080.83617366 .00076319 14203-4 10347-3 0 8438 2 29667 051.6287 063.7367 0008400 018.7339 341.4104 16.06299010 72310 FALCON 1 30776U 07006E 08079.96155076 .00000560 00000-0 43950-4 0 02730 2 30776 035.4349 334.6021 0001974 311.6934 048.3612 15.02917906056713 MAST 1 31126U 07012K 08079.74383067 .00000068 00000-0 26467-4 0 02834 2 31126 098.0474 147.7191 0093807 248.8468 110.2666 14.53406860049028 CAPE1 1 31130U 07012P 08080.77613620 .00000197 00000-0 56874-4 0 2631 2 31130 098.0485 147.9233 0101688 248.0339 111.0019 14.51942178 48890 /EX